This demonstration page uses our WeatherBlox Daily Observations layout. Learn more.

Left ArrowRight Arrow

40.92945, -100.16068

Hourly Observations for February 7, 2016

Temp ( °F °C ) Dew Point ( °F °C ) Humidity (%) Winds ( mph kmh ) Pressure ( in mb ) Visibility ( mi km ) Precip ( " mm )
12:15 am 00:15 Clear 35 1.5 27 -2.6 74 74 WNW 15 24 30.12 1020 10 16 N/A
12:35 am 00:35 Clear 35 1.5 28 -2.5 75 75 WNW 13 20 30.12 1020 10 16 N/A
12:55 am 00:55 Clear 35 1.5 28 -2.3 76 76 WNW 12 19 30.12 1020 10 16 N/A
1:15 am 01:15 Clear 34 1.3 28 -2.2 78 78 WNW 12 19 30.12 1020 10 16 N/A
1:35 am 01:35 Clear 34 1.1 28 -2.5 77 77 WNW 12 19 30.12 1020 10 16 N/A
1:55 am 01:55 Clear 34 1.3 28 -2.5 76 76 WNW 12 19 30.12 1020 10 16 N/A
2:15 am 02:15 Clear 34 1.3 27 -2.7 75 75 WNW 12 19 30.12 1020 10 16 N/A
2:35 am 02:35 Clear 34 1 27 -3 75 75 W 10 17 30.12 1020 10 16 N/A
2:55 am 02:55 Clear 34 1 26 -3.2 74 74 WNW 12 19 30.12 1020 10 16 N/A
3:15 am 03:15 Clear 34 1.3 27 -3 73 73 W 15 24 30.12 1020 10 16 N/A
3:35 am 03:35 Clear 36 2 26 -3.2 69 69 W 14 22 30.12 1020 10 16 N/A
3:55 am 03:55 Clear 35 1.4 26 -3.5 70 70 WNW 13 20 30.12 1020 10 16 N/A
4:15 am 04:15 Clear 33 0.5 26 -3.6 74 74 WNW 13 20 30.12 1020 10 16 N/A
4:35 am 04:35 Clear 33 0.8 26 -3.5 73 73 WNW 15 24 30.12 1020 10 16 N/A
4:55 am 04:55 Clear 33 0.6 26 -3.5 74 74 WNW 17 28 30.12 1020 10 16 N/A
5:15 am 05:15 Clear 32 undefined 25 -3.8 76 76 WNW 15 24 30.15 1021 10 16 N/A
5:35 am 05:35 Clear 31 -0.3 25 -4 76 76 W 15 24 30.15 1021 10 16 N/A
5:55 am 05:55 Partly Cloudy 31 -0.3 25 -3.9 77 77 WNW 12 19 30.18 1022 10 16 N/A
6:15 am 06:15 Partly Cloudy 31 -0.8 24 -4.2 78 78 WNW 9 15 30.18 1022 10 16 N/A
6:35 am 06:35 Clear 30 -1 24 -4.3 79 79 W 13 20 30.18 1022 10 16 N/A
6:55 am 06:55 Partly Cloudy 30 -1 24 -4.6 77 77 W 12 19 30.18 1022 10 16 N/A
7:15 am 07:15 Mostly Cloudy 31 -0.7 24 -4.7 75 75 W 10 17 30.21 1023 10 16 N/A
7:35 am 07:35 Mostly Cloudy 31 -0.7 24 -4.6 75 75 WNW 12 19 30.21 1023 10 16 N/A
7:55 am 07:55 Cloudy 31 -0.5 24 -4.7 74 74 WNW 13 20 30.21 1023 10 16 N/A
8:15 am 08:15 Cloudy 32 undefined 24 -4.5 72 72 WNW 13 20 30.21 1023 10 16 N/A
8:35 am 08:35 Mostly Cloudy 33 0.3 24 -4.2 72 72 WNW 12 19 30.24 1024 10 16 N/A
8:55 am 08:55 Cloudy 34 1 25 -4 70 70 WNW 14 22 30.24 1024 10 16 N/A
9:15 am 09:15 Cloudy 34 1.1 25 -3.7 71 71 WNW 14 22 30.24 1024 10 16 N/A
9:35 am 09:35 Cloudy 35 1.5 26 -3.5 70 70 WNW 10 17 30.27 1025 10 16 N/A
9:55 am 09:55 Cloudy 37 2.7 24 -4.3 60 60 WNW 15 24 30.24 1024 10 16 N/A
10:15 am 10:15 Mostly Cloudy 38 3.1 25 -3.9 60 60 WNW 15 24 30.24 1024 10 16 N/A
10:35 am 10:35 Mostly Cloudy 38 3.2 25 -3.7 61 61 WNW 17 28 30.24 1024 10 16 N/A
10:55 am 10:55 Partly Cloudy 38 3.5 25 -3.9 59 59 WNW 20 31 30.24 1024 10 16 N/A
11:15 am 11:15 Partly Cloudy 39 3.7 25 -3.8 58 58 WNW 17 28 30.24 1024 10 16 N/A
11:35 am 11:35 Sunny 39 3.9 26 -3.5 59 59 WNW 16 26 30.24 1024 10 16 N/A
11:55 am 11:55 Sunny 40 4.4 24 -4.2 54 54 WNW 18 30 30.24 1024 10 16 N/A
12:15 pm 12:15 Sunny 40 4.7 23 -5.2 49 49 WNW 28 44 30.24 1024 10 16 N/A
12:35 pm 12:35 Sunny 40 4.7 23 -5.2 49 49 WNW 23 37 30.18 1022 10 16 N/A
12:55 pm 12:55 Sunny 41 4.8 21 -6.2 45 45 WNW 31 50 30.18 1022 10 16 N/A
1:15 pm 13:15 Sunny 41 5 20 -6.8 43 43 WNW 29 46 30.18 1022 10 16 N/A
1:35 pm 13:35 Sunny 40 4.7 21 -6.3 45 45 WNW 31 50 30.15 1021 10 16 N/A
1:55 pm 13:55 Sunny 40 4.7 20 -6.7 44 44 WNW 31 50 30.15 1021 10 16 N/A
2:15 pm 14:15 Sunny 40 4.6 20 -6.6 44 44 WNW 25 41 30.15 1021 10 16 N/A
2:35 pm 14:35 Sunny 40 4.5 21 -6.2 46 46 WNW 24 39 30.15 1021 10 16 N/A
2:55 pm 14:55 Sunny 40 4.4 22 -5.8 48 48 WNW 23 37 30.18 1022 10 16 N/A
3:15 pm 15:15 Sunny 40 4.6 22 -5.8 47 47 NW 25 41 30.15 1021 10 16 N/A
3:35 pm 15:35 Sunny 40 4.6 17 -8.4 39 39 NW 26 43 30.15 1021 10 16 N/A
3:55 pm 15:55 Sunny 40 4.7 18 -7.8 40 40 NW 35 56 30.15 1021 10 16 N/A
4:15 pm 16:15 Sunny 40 4.5 16 -8.8 38 38 NW 29 46 30.15 1021 10 16 N/A
4:35 pm 16:35 Sunny 39 4.1 15 -9.4 37 37 NW 30 48 30.18 1022 10 16 N/A
4:55 pm 16:55 Sunny 39 4 15 -9.4 37 37 NW 31 50 30.18 1022 10 16 N/A
5:15 pm 17:15 Sunny 39 3.8 13 -10.3 35 35 NW 33 54 30.18 1022 10 16 N/A
5:35 pm 17:35 Sunny 38 3.2 14 -9.8 38 38 NW 25 41 30.21 1023 10 16 N/A
5:55 pm 17:55 Sunny 38 3.1 13 -10.3 37 37 NW 28 44 30.21 1023 10 16 N/A
6:15 pm 18:15 Clear 36 2.2 15 -9.5 42 42 NW 24 39 30.21 1023 10 16 N/A
6:35 pm 18:35 Clear 36 2.3 13 -10.3 39 39 NW 32 52 30.21 1023 10 16 N/A
6:55 pm 18:55 Clear 35 1.7 15 -9.6 43 43 NW 22 35 30.27 1025 10 16 N/A
7:15 pm 19:15 Clear 35 1.6 14 -9.8 43 43 NW 23 37 30.27 1025 10 16 N/A
7:35 pm 19:35 Clear 33 0.8 16 -9.1 48 48 NW 17 28 30.27 1025 10 16 N/A
7:55 pm 19:55 Clear 32 undefined 17 -8.6 53 53 WNW 18 30 30.27 1025 10 16 N/A
8:15 pm 20:15 Clear 33 0.6 15 -9.5 47 47 NW 23 37 30.27 1025 10 16 N/A
8:35 pm 20:35 Clear 33 0.4 15 -9.3 49 49 NW 18 30 30.27 1025 10 16 N/A
8:55 pm 20:55 Clear 32 0.2 15 -9.5 49 49 NW 17 28 30.27 1025 10 16 N/A
9:15 pm 21:15 Clear 31 -0.6 17 -8.6 55 55 WNW 14 22 30.33 1027 10 16 N/A
9:35 pm 21:35 Clear 29 -1.7 16 -8.8 59 59 WNW 14 22 30.33 1027 10 16 N/A
9:55 pm 21:55 Clear 28 -2.1 16 -9 60 60 WNW 15 24 30.33 1027 10 16 N/A
10:20 pm 22:20 Clear 28 -2 16 -9.1 59 59 WNW 15 24 30.33 1027 10 16 N/A
10:35 pm 22:35 Clear 29 -1.8 15 -9.2 57 57 NW 13 20 30.33 1027 10 16 N/A
10:55 pm 22:55 Clear 28 -2.5 16 -9.1 61 61 WNW 15 24 30.33 1027 10 16 N/A
11:15 pm 23:15 Clear 28 -2.1 15 -9.2 59 59 WNW 17 28 30.33 1027 10 16 N/A
11:35 pm 23:35 Clear 28 -2 16 -9.1 59 59 NW 18 30 30.33 1027 10 16 N/A
11:55 pm 23:55 Clear 28 -2.5 15 -9.2 60 60 WNW 15 24 30.33 1027 10 16 N/A

Powered by AerisWeather